Home > Weather > Jefferson City > Past weeks

Flag for U.S.A. Weather for the Past 2 Weeks in Jefferson City, Missouri, U.S.A.

Now
27 °F

Overcast.


Feels Like: 27 °F
Forecast: 14 / 34 °F
Wind: No wind

Location: Jefferson City Memorial Airport

Current Time: Feb 12, 2016 at 4:31:32 AM

Latest Report: Feb 12, 2016 at 3:53 AM


Visibility: 10 mi

Pressure: 30.20 "Hg

Humidity: 85%

Dew point: 23 °F

Location of Jefferson CityLocation

Historic Weather in Jefferson City — Graph

°F

Jefferson City Temperature Yesterday

Maximum temperature yesterday: 37 °F (at 2:53 PM)
Minimum temperature yesterday: 23 °F (at 4:53 AM)
Average temperature yesterday: 29 °F

High & Low Weather Summary for the Past Weeks

 TemperatureHumidityPressure
High66 °F (Feb 2, 2:53 PM)93% (Jan 29, 1:53 AM)30.45 "Hg (Jan 29, 1:53 AM)
Low16 °F (Feb 10, 7:53 AM)19% (Feb 2, 2:53 PM)29.38 "Hg (Feb 2, 1:53 PM)
Average37 °F62%29.99 "Hg
* Reported Jan 28 2:53 AM — Feb 12 2:53 AM, Jefferson City, Weather by CustomWeather, © 2016

Note: Actual official high and low records may vary slightly from our data, if they occured in-between our weather recording intervals... More about our weather records

Advertising

Jefferson City Weather History for the Previous 24 Hours

 ConditionsComfort  
Time TempWeatherWind HumidityBarometerVisibility
2:53 AM
Fri, Feb 12
27 °FOvercast.5 mph85%30.19 "Hg10 mi
1:53 AM27 °FOvercast.5 mph85%30.20 "Hg10 mi
12:53 AM27 °FMostly cloudy.6 mph85%30.18 "Hg10 mi
11:53 PM
Thu, Feb 11
27 °FMostly cloudy.6 mph85%30.20 "Hg10 mi
11:03 PM27 °FLight snow. Mostly cloudy.8 mph85%30.22 "Hg7 mi
10:54 PM27 °FLight snow. Ice fog.6 mph89%30.24 "Hg3 mi
9:53 PM30 °FOvercast.6 mph66%30.24 "Hg10 mi
8:53 PM31 °FOvercast.8 mph61%30.20 "Hg10 mi
7:53 PM32 °FMostly cloudy.7 mph59%30.24 "Hg10 mi
6:53 PM33 °FOvercast.8 mph56%30.23 "Hg10 mi
5:53 PM34 °FOvercast.7 mph52%30.24 "Hg10 mi
4:53 PM35 °FOvercast.6 mph52%30.23 "Hg10 mi
2:53 PM37 °FSunny.No wind48%30.24 "Hg10 mi
1:53 PM34 °FSunny.5 mph54%30.25 "Hg10 mi
12:53 PM32 °FSunny.No wind56%30.27 "Hg10 mi
11:53 AM31 °FSunny.6 mph59%30.29 "Hg10 mi
10:53 AM28 °FSunny.5 mph64%30.33 "Hg10 mi
9:53 AM26 °FScattered clouds.8 mph69%30.32 "Hg10 mi
8:53 AM25 °FOvercast.6 mph72%30.31 "Hg10 mi
7:53 AM24 °FOvercast.8 mph77%30.29 "Hg10 mi
6:53 AM24 °FOvercast.3 mph77%30.24 "Hg10 mi
5:53 AM23 °FOvercast.7 mph81%30.24 "Hg10 mi
4:53 AM23 °FPassing clouds.9 mph81%30.21 "Hg10 mi
Weather by CustomWeather, © 2016

See weather overviewHow to use our weather pages